Em Athens — V7US8 — position and weather

sailwx.info

Track history (hours):
 
Tides and Currents Weather Stations Pressure Air Temp Water Temp Dewpoint Dewpoint Depression Visibility Wind Speed Wind Dir Waves Ship Positions

Em Athens

Last reported at 2014-Jul-26 15:22 UTC. Time now 2014-Jul-28 10:29 UTC.
Position N 49°56' W 001°45'.

; draft 9.6 m.

Type: Ship. MMSI: 538004019.

Date/timePositionNaut miles runAvg speedWind from/ knotsBaromVisibWave heightAir tempDewpointWater temp
2014-Jul-26 15:22N 49°56' W 001°45'2219.1
2014-Jul-26 14:12N 49°49' W 001°13'1419.1
2014-Jul-26 13:27N 49°44' W 000°52'1618.1
2014-Jul-26 12:33N 49°38' W 000°28'1616.0
2014-Jul-26 11:33N 49°31' W 000°06'1111.4
2014-Jul-26 10:33N 49°27' E 000°10'0 0.0
2014-Jul-26 09:31N 49°27' E 000°10'0 0.0
2014-Jul-26 08:31N 49°27' E 000°10'0 0.0
2014-Jul-26 07:31N 49°27' E 000°10'0 0.0
2014-Jul-26 06:31N 49°27' E 000°10'0 0.0
2014-Jul-26 05:31N 49°27' E 000°10'0 0.0
2014-Jul-26 04:31N 49°27' E 000°10'0 0.0
2014-Jul-26 03:31N 49°27' E 000°10'0 0.0
2014-Jul-26 02:31N 49°27' E 000°10'0 0.0
2014-Jul-26 01:31N 49°27' E 000°10'0 0.0
2014-Jul-26 00:31N 49°27' E 000°10'0 0.0
2014-Jul-25 23:31N 49°27' E 000°10'0 0.0
2014-Jul-25 22:31N 49°27' E 000°10'0 0.0
2014-Jul-25 21:31N 49°27' E 000°10'0 0.0
2014-Jul-25 20:31N 49°27' E 000°10'0 0.0
2014-Jul-25 19:31N 49°27' E 000°10'1 0.7
2014-Jul-25 18:33N 49°27' E 000°09'10 9.9
2014-Jul-25 17:33N 49°31' W 000°05'1110.7
2014-Jul-25 16:33N 49°41' W 000°10'1111.3
2014-Jul-25 15:33N 49°52' W 000°10'1110.7
2014-Jul-25 14:33N 50°03' W 000°09'2512.1
2014-Jul-25 12:31N 50°28' W 000°04'1512.8
2014-Jul-25 11:20N 50°31' E 000°19'912.0
2014-Jul-25 10:33N 50°34' E 000°33'1111.3
2014-Jul-25 09:33N 50°40' E 000°48'2311.6
2014-Jul-25 07:33N 50°54' E 001°18'1414.1
2014-Jul-25 06:33N 51°04' E 001°33'1110.9
2014-Jul-25 05:34N 51°02' E 001°50'1312.6
2014-Jul-25 04:33N 51°01' E 002°10'1 1.0
2014-Jul-25 03:33N 51°01' E 002°11'0 0.0
2014-Jul-25 02:33N 51°01' E 002°11'0 0.0
2014-Jul-25 01:33N 51°01' E 002°11'0 0.0
2014-Jul-25 00:33N 51°01' E 002°11'0 0.0
2014-Jul-24 23:33N 51°01' E 002°11'0 0.0
2014-Jul-24 22:33N 51°01' E 002°11'0 0.0
2014-Jul-24 21:33N 51°01' E 002°11'0 0.0
2014-Jul-24 20:33N 51°01' E 002°11'0 0.0
2014-Jul-24 19:27N 51°01' E 002°11'0 0.0
2014-Jul-24 18:33N 51°01' E 002°11'0 0.0
2014-Jul-24 17:30N 51°01' E 002°11'2 2.3
2014-Jul-24 16:34N 51°03' E 002°10'1212.3
2014-Jul-24 15:33N 51°02' E 001°50'2 2.4
2014-Jul-24 14:33N 51°03' E 001°46'9 9.4
2014-Jul-24 13:34N 51°12' E 001°45'1110.9
2014-Jul-24 12:34N 51°21' E 001°54'1110.5
2014-Jul-24 11:34N 51°30' E 002°04'1010.1
2014-Jul-24 10:33N 51°37' E 002°15'1110.9
2014-Jul-24 09:33N 51°45' E 002°26'1211.8
2014-Jul-24 08:33N 51°54' E 002°39'1211.6
2014-Jul-24 07:33N 52°01' E 002°54'1211.6
2014-Jul-24 06:33N 52°03' E 003°13'1110.9
2014-Jul-24 05:33N 52°03' E 003°30'7 6.9
2014-Jul-24 04:33N 52°07' E 003°40'0 0.1
2014-Jul-24 03:30N 52°08' E 003°40'0 0.0
2014-Jul-24 01:33N 52°08' E 003°40'0 0.0
2014-Jul-24 00:33N 52°08' E 003°40'0 0.2
2014-Jul-23 23:33N 52°08' E 003°39'0 0.1
2014-Jul-23 22:33N 52°08' E 003°39'0 0.2
2014-Jul-23 21:33N 52°07' E 003°39'0 0.5
2014-Jul-23 20:33N 52°07' E 003°40'1110.6
2014-Jul-23 19:33N 52°02' E 003°55'1111.3
2014-Jul-23 18:33N 51°57' E 004°11'9 8.5
2014-Jul-23 17:33N 51°53' E 004°24'1 0.7
2014-Jul-23 16:33N 51°53' E 004°24'0 0.0
2014-Jul-23 15:33N 51°53' E 004°24'0 0.0
2014-Jul-23 14:33N 51°53' E 004°24'0 0.0
2014-Jul-23 13:27N 51°53' E 004°24'0 0.0
2014-Jul-23 12:33N 51°53' E 004°24'0 0.0
2014-Jul-23 10:30N 51°53' E 004°24'0 0.0
2014-Jul-23 09:33N 51°53' E 004°24'0 0.0
2014-Jul-23 08:30N 51°53' E 004°24'0 0.0
2014-Jul-23 07:33N 51°53' E 004°24'0 0.0
2014-Jul-23 06:33N 51°53' E 004°24'0 0.0
2014-Jul-23 05:33N 51°53' E 004°24'0 0.0
2014-Jul-23 04:30N 51°53' E 004°24'0 0.0
2014-Jul-23 03:33N 51°53' E 004°24'0 0.0
2014-Jul-23 02:33N 51°53' E 004°24'0 0.0
2014-Jul-23 01:33N 51°53' E 004°24'0 0.0
2014-Jul-23 00:33N 51°53' E 004°24'0 0.0
2014-Jul-22 23:33N 51°53' E 004°24'0 0.0
2014-Jul-22 22:30N 51°53' E 004°24'0 0.0
2014-Jul-22 21:33N 51°53' E 004°24'0 0.0
2014-Jul-22 20:27N 51°53' E 004°24'0 0.0
2014-Jul-22 19:33N 51°53' E 004°24'0 0.0
2014-Jul-22 18:33N 51°53' E 004°24'0 0.0
2014-Jul-22 17:30N 51°53' E 004°24'0 0.0
2014-Jul-22 16:30N 51°53' E 004°24'0 0.0
2014-Jul-22 15:33N 51°53' E 004°24'0 0.0
2014-Jul-22 14:30N 51°53' E 004°24'0 0.0
2014-Jul-22 13:33N 51°53' E 004°24'0 0.0
2014-Jul-22 12:30N 51°53' E 004°24'0 0.0
2014-Jul-22 11:33N 51°53' E 004°24'0 0.0
2014-Jul-22 10:30N 51°53' E 004°24'0 0.0
2014-Jul-22 09:33N 51°53' E 004°24'0 0.0
2014-Jul-22 08:33N 51°53' E 004°24'0 0.0
2014-Jul-22 07:33N 51°53' E 004°24'0 0.0
2014-Jul-22 06:33N 51°53' E 004°24'0 0.0
2014-Jul-22 05:30N 51°53' E 004°24'0 0.0
2014-Jul-22 04:33N 51°53' E 004°24'0 0.0
2014-Jul-22 03:33N 51°53' E 004°24'0 0.0
2014-Jul-22 02:30N 51°53' E 004°24'0 0.0
2014-Jul-22 01:33N 51°53' E 004°24'0 0.0
2014-Jul-22 00:33N 51°53' E 004°24'0 0.0
2014-Jul-21 23:30N 51°53' E 004°24'0 0.0
2014-Jul-21 22:30N 51°53' E 004°24'0 0.0
2014-Jul-21 21:33N 51°53' E 004°24'1 1.3
2014-Jul-21 20:33N 51°54' E 004°22'2 7.2
2014-Jul-21 20:18N 51°54' E 004°20'7 9.7
2014-Jul-21 19:33N 51°57' E 004°10'1212.0
2014-Jul-21 18:33N 52°00' E 003°51'7 6.6
2014-Jul-21 17:33N 51°58' E 003°41'6 6.1
2014-Jul-21 16:33N 51°54' E 003°33'0 0.1
2014-Jul-21 15:19N 51°54' E 003°33'0 0.0
2014-Jul-21 14:07N 51°54' E 003°33'0 0.0
2014-Jul-21 06:10N 51°54' E 003°34'0 0.1
2014-Jul-21 05:28N 51°54' E 003°33'0 0.0
2014-Jul-21 04:31N 51°54' E 003°33'0 0.0
2014-Jul-21 03:28N 51°54' E 003°33'0 0.0
2014-Jul-21 02:28N 51°54' E 003°33'0 0.0
2014-Jul-21 01:31N 51°54' E 003°33'0 0.2
2014-Jul-21 00:22N 51°54' E 003°34'0 0.1
2014-Jul-20 23:19N 51°54' E 003°34'0 0.0
2014-Jul-20 22:31N 51°54' E 003°34'0 0.0
2014-Jul-20 21:31N 51°54' E 003°34'0 0.0
2014-Jul-20 20:08N 51°54' E 003°34'0 0.1
2014-Jul-20 17:28N 51°54' E 003°34'0 0.1
2014-Jul-20 16:28N 51°54' E 003°33'0 0.0
2014-Jul-20 15:28N 51°54' E 003°33'0 0.0
2014-Jul-20 14:25N 51°54' E 003°33'0 0.0
2014-Jul-20 13:31N 51°54' E 003°33'0 0.0
2014-Jul-20 12:28N 51°54' E 003°33'0 0.1
2014-Jul-20 08:25N 51°54' E 003°34'0 0.0
2014-Jul-20 07:28N 51°54' E 003°34'0 0.0
2014-Jul-20 06:28N 51°54' E 003°34'0 0.1
2014-Jul-20 05:25N 51°54' E 003°34'0 0.1
2014-Jul-20 04:22N 51°54' E 003°33'0 0.0
2014-Jul-20 03:31N 51°54' E 003°33'0 0.0
2014-Jul-20 02:31N 51°54' E 003°33'0 0.0
2014-Jul-20 01:31N 51°54' E 003°33'0 0.1
2014-Jul-20 00:19N 51°54' E 003°33'0 0.2
2014-Jul-19 23:28N 51°54' E 003°34'0 0.1
2014-Jul-19 22:26N 51°54' E 003°34'0 0.0
2014-Jul-19 18:31N 51°54' E 003°34'0 0.0
2014-Jul-19 17:25N 51°54' E 003°34'0 0.2
2014-Jul-19 16:25N 51°54' E 003°33'0 0.1
2014-Jul-19 15:31N 51°54' E 003°33'0 0.0
2014-Jul-19 12:22N 51°54' E 003°33'0 0.0
2014-Jul-19 11:31N 51°54' E 003°33'0 0.1
2014-Jul-19 10:07N 51°54' E 003°33'0 0.0
2014-Jul-19 06:04N 51°54' E 003°34'0 0.1
2014-Jul-19 05:22N 51°54' E 003°33'0 0.3
2014-Jul-19 04:31N 51°54' E 003°33'0 0.1
2014-Jul-19 03:31N 51°54' E 003°33'0 0.0
2014-Jul-19 02:31N 51°54' E 003°33'0 0.0
2014-Jul-19 01:31N 51°54' E 003°33'0 0.0
2014-Jul-19 00:31N 51°54' E 003°33'0 0.2
2014-Jul-18 23:25N 51°54' E 003°34'0 0.2
2014-Jul-18 22:13N 51°54' E 003°33'0 0.1
2014-Jul-18 21:31N 51°54' E 003°33'0 0.1
2014-Jul-18 20:28N 51°54' E 003°33'0 0.1
2014-Jul-18 16:13N 51°54' E 003°33'0 0.0
2014-Jul-18 13:28N 51°54' E 003°33'0 0.0
2014-Jul-18 12:10N 51°54' E 003°33'0 0.0
2014-Jul-18 11:31N 51°54' E 003°33'0 0.1
2014-Jul-18 10:31N 51°54' E 003°33'0 0.1
2014-Jul-18 09:28N 51°54' E 003°33'0 0.1
2014-Jul-18 08:31N 51°54' E 003°33'0 0.0
2014-Jul-18 07:31N 51°54' E 003°34'0 0.0
2014-Jul-18 06:31N 51°54' E 003°34'0 0.0
2014-Jul-18 05:31N 51°54' E 003°34'0 0.0
2014-Jul-18 04:31N 51°54' E 003°33'0 0.2
2014-Jul-18 03:31N 51°54' E 003°33'0 0.0
2014-Jul-18 02:31N 51°54' E 003°33'0 0.0
2014-Jul-18 01:31N 51°54' E 003°33'0 0.0
2014-Jul-18 00:31N 51°54' E 003°33'0 0.0
2014-Jul-17 23:31N 51°54' E 003°33'0 0.0
2014-Jul-17 22:32N 51°54' E 003°33'0 0.0
2014-Jul-17 21:31N 51°54' E 003°33'0 0.1
2014-Jul-17 20:31N 51°54' E 003°33'0 0.1
2014-Jul-17 19:25N 51°54' E 003°33'0 0.0
2014-Jul-17 18:31N 51°54' E 003°33'0 0.0
2014-Jul-17 17:31N 51°54' E 003°33'0 0.0
2014-Jul-17 16:31N 51°54' E 003°34'0 0.2
2014-Jul-17 15:31N 51°54' E 003°33'0 0.0
2014-Jul-17 14:31N 51°54' E 003°33'0 0.0
2014-Jul-17 13:31N 51°54' E 003°33'0 0.0
2014-Jul-17 12:32N 51°54' E 003°33'0 0.0
2014-Jul-17 11:32N 51°54' E 003°33'0 0.0
2014-Jul-17 10:31N 51°54' E 003°33'0 0.1
2014-Jul-17 09:28N 51°54' E 003°33'0 0.1
2014-Jul-17 08:31N 51°54' E 003°33'0 0.0
2014-Jul-17 07:31N 51°54' E 003°33'0 0.0
2014-Jul-17 06:28N 51°54' E 003°34'0 0.0
2014-Jul-17 05:16N 51°54' E 003°34'0 0.0
2014-Jul-17 04:31N 51°54' E 003°34'0 0.0
2014-Jul-17 03:32N 51°54' E 003°34'0 0.2
2014-Jul-17 02:31N 51°54' E 003°33'0 0.1
2014-Jul-17 01:31N 51°54' E 003°33'0 0.0
2014-Jul-17 00:31N 51°54' E 003°33'0 0.0
2014-Jul-16 23:31N 51°54' E 003°33'0 0.0
2014-Jul-16 22:25N 51°54' E 003°33'0 0.2
2014-Jul-16 21:13N 51°54' E 003°33'0 0.0
2014-Jul-16 20:25N 51°54' E 003°33'0 0.1
2014-Jul-16 19:31N 51°54' E 003°33'0 0.0
2014-Jul-16 18:31N 51°54' E 003°33'0 0.0
2014-Jul-16 17:25N 51°54' E 003°34'0 0.0
2014-Jul-16 16:28N 51°54' E 003°34'0 0.0
2014-Jul-16 15:28N 51°54' E 003°34'  
Track history (hours):
 
Tides and Currents Weather Stations Pressure Air Temp Water Temp Dewpoint Dewpoint Depression Visibility Wind Speed Wind Dir Waves Ship Positions

Em Athens

Last reported at 2014-Jul-26 15:22 UTC. Time now 2014-Jul-28 10:29 UTC.
Position N 49°56' W 001°45'.

; draft 9.6 m.

Type: Ship. MMSI: 538004019.

Date/timePositionNaut miles runAvg speedWind from/ knotsBaromVisibWave heightAir tempDewpointWater temp
2014-Jul-26 15:22N 49°56' W 001°45'2219.1
2014-Jul-26 14:12N 49°49' W 001°13'1419.1
2014-Jul-26 13:27N 49°44' W 000°52'1618.1
2014-Jul-26 12:33N 49°38' W 000°28'1616.0
2014-Jul-26 11:33N 49°31' W 000°06'1111.4
2014-Jul-26 10:33N 49°27' E 000°10'0 0.0
2014-Jul-26 09:31N 49°27' E 000°10'0 0.0
2014-Jul-26 08:31N 49°27' E 000°10'0 0.0
2014-Jul-26 07:31N 49°27' E 000°10'0 0.0
2014-Jul-26 06:31N 49°27' E 000°10'0 0.0
2014-Jul-26 05:31N 49°27' E 000°10'0 0.0
2014-Jul-26 04:31N 49°27' E 000°10'0 0.0
2014-Jul-26 03:31N 49°27' E 000°10'0 0.0
2014-Jul-26 02:31N 49°27' E 000°10'0 0.0
2014-Jul-26 01:31N 49°27' E 000°10'0 0.0
2014-Jul-26 00:31N 49°27' E 000°10'0 0.0
2014-Jul-25 23:31N 49°27' E 000°10'0 0.0
2014-Jul-25 22:31N 49°27' E 000°10'0 0.0
2014-Jul-25 21:31N 49°27' E 000°10'0 0.0
2014-Jul-25 20:31N 49°27' E 000°10'0 0.0
2014-Jul-25 19:31N 49°27' E 000°10'1 0.7
2014-Jul-25 18:33N 49°27' E 000°09'10 9.9
2014-Jul-25 17:33N 49°31' W 000°05'1110.7
2014-Jul-25 16:33N 49°41' W 000°10'1111.3
2014-Jul-25 15:33N 49°52' W 000°10'1110.7
2014-Jul-25 14:33N 50°03' W 000°09'2512.1
2014-Jul-25 12:31N 50°28' W 000°04'1512.8
2014-Jul-25 11:20N 50°31' E 000°19'912.0
2014-Jul-25 10:33N 50°34' E 000°33'1111.3
2014-Jul-25 09:33N 50°40' E 000°48'2311.6
2014-Jul-25 07:33N 50°54' E 001°18'1414.1
2014-Jul-25 06:33N 51°04' E 001°33'1110.9
2014-Jul-25 05:34N 51°02' E 001°50'1312.6
2014-Jul-25 04:33N 51°01' E 002°10'1 1.0
2014-Jul-25 03:33N 51°01' E 002°11'0 0.0
2014-Jul-25 02:33N 51°01' E 002°11'0 0.0
2014-Jul-25 01:33N 51°01' E 002°11'0 0.0
2014-Jul-25 00:33N 51°01' E 002°11'0 0.0
2014-Jul-24 23:33N 51°01' E 002°11'0 0.0
2014-Jul-24 22:33N 51°01' E 002°11'0 0.0
2014-Jul-24 21:33N 51°01' E 002°11'0 0.0
2014-Jul-24 20:33N 51°01' E 002°11'0 0.0
2014-Jul-24 19:27N 51°01' E 002°11'0 0.0
2014-Jul-24 18:33N 51°01' E 002°11'0 0.0
2014-Jul-24 17:30N 51°01' E 002°11'2 2.3
2014-Jul-24 16:34N 51°03' E 002°10'1212.3
2014-Jul-24 15:33N 51°02' E 001°50'2 2.4
2014-Jul-24 14:33N 51°03' E 001°46'9 9.4
2014-Jul-24 13:34N 51°12' E 001°45'1110.9
2014-Jul-24 12:34N 51°21' E 001°54'1110.5
2014-Jul-24 11:34N 51°30' E 002°04'1010.1
2014-Jul-24 10:33N 51°37' E 002°15'1110.9
2014-Jul-24 09:33N 51°45' E 002°26'1211.8
2014-Jul-24 08:33N 51°54' E 002°39'1211.6
2014-Jul-24 07:33N 52°01' E 002°54'1211.6
2014-Jul-24 06:33N 52°03' E 003°13'1110.9
2014-Jul-24 05:33N 52°03' E 003°30'7 6.9
2014-Jul-24 04:33N 52°07' E 003°40'0 0.1
2014-Jul-24 03:30N 52°08' E 003°40'0 0.0
2014-Jul-24 01:33N 52°08' E 003°40'0 0.0
2014-Jul-24 00:33N 52°08' E 003°40'0 0.2
2014-Jul-23 23:33N 52°08' E 003°39'0 0.1
2014-Jul-23 22:33N 52°08' E 003°39'0 0.2
2014-Jul-23 21:33N 52°07' E 003°39'0 0.5
2014-Jul-23 20:33N 52°07' E 003°40'1110.6
2014-Jul-23 19:33N 52°02' E 003°55'1111.3
2014-Jul-23 18:33N 51°57' E 004°11'9 8.5
2014-Jul-23 17:33N 51°53' E 004°24'1 0.7
2014-Jul-23 16:33N 51°53' E 004°24'0 0.0
2014-Jul-23 15:33N 51°53' E 004°24'0 0.0
2014-Jul-23 14:33N 51°53' E 004°24'0 0.0
2014-Jul-23 13:27N 51°53' E 004°24'0 0.0
2014-Jul-23 12:33N 51°53' E 004°24'0 0.0
2014-Jul-23 10:30N 51°53' E 004°24'0 0.0
2014-Jul-23 09:33N 51°53' E 004°24'0 0.0
2014-Jul-23 08:30N 51°53' E 004°24'0 0.0
2014-Jul-23 07:33N 51°53' E 004°24'0 0.0
2014-Jul-23 06:33N 51°53' E 004°24'0 0.0
2014-Jul-23 05:33N 51°53' E 004°24'0 0.0
2014-Jul-23 04:30N 51°53' E 004°24'0 0.0
2014-Jul-23 03:33N 51°53' E 004°24'0 0.0
2014-Jul-23 02:33N 51°53' E 004°24'0 0.0
2014-Jul-23 01:33N 51°53' E 004°24'0 0.0
2014-Jul-23 00:33N 51°53' E 004°24'0 0.0
2014-Jul-22 23:33N 51°53' E 004°24'0 0.0
2014-Jul-22 22:30N 51°53' E 004°24'0 0.0
2014-Jul-22 21:33N 51°53' E 004°24'0 0.0
2014-Jul-22 20:27N 51°53' E 004°24'0 0.0
2014-Jul-22 19:33N 51°53' E 004°24'0 0.0
2014-Jul-22 18:33N 51°53' E 004°24'0 0.0
2014-Jul-22 17:30N 51°53' E 004°24'0 0.0
2014-Jul-22 16:30N 51°53' E 004°24'0 0.0
2014-Jul-22 15:33N 51°53' E 004°24'0 0.0
2014-Jul-22 14:30N 51°53' E 004°24'0 0.0
2014-Jul-22 13:33N 51°53' E 004°24'0 0.0
2014-Jul-22 12:30N 51°53' E 004°24'0 0.0
2014-Jul-22 11:33N 51°53' E 004°24'0 0.0
2014-Jul-22 10:30N 51°53' E 004°24'0 0.0
2014-Jul-22 09:33N 51°53' E 004°24'0 0.0
2014-Jul-22 08:33N 51°53' E 004°24'0 0.0
2014-Jul-22 07:33N 51°53' E 004°24'0 0.0
2014-Jul-22 06:33N 51°53' E 004°24'0 0.0
2014-Jul-22 05:30N 51°53' E 004°24'0 0.0
2014-Jul-22 04:33N 51°53' E 004°24'0 0.0
2014-Jul-22 03:33N 51°53' E 004°24'0 0.0
2014-Jul-22 02:30N 51°53' E 004°24'0 0.0
2014-Jul-22 01:33N 51°53' E 004°24'0 0.0
2014-Jul-22 00:33N 51°53' E 004°24'0 0.0
2014-Jul-21 23:30N 51°53' E 004°24'0 0.0
2014-Jul-21 22:30N 51°53' E 004°24'0 0.0
2014-Jul-21 21:33N 51°53' E 004°24'1 1.3
2014-Jul-21 20:33N 51°54' E 004°22'2 7.2
2014-Jul-21 20:18N 51°54' E 004°20'7 9.7
2014-Jul-21 19:33N 51°57' E 004°10'1212.0
2014-Jul-21 18:33N 52°00' E 003°51'7 6.6
2014-Jul-21 17:33N 51°58' E 003°41'6 6.1
2014-Jul-21 16:33N 51°54' E 003°33'0 0.1
2014-Jul-21 15:19N 51°54' E 003°33'0 0.0
2014-Jul-21 14:07N 51°54' E 003°33'0 0.0
2014-Jul-21 06:10N 51°54' E 003°34'0 0.1
2014-Jul-21 05:28N 51°54' E 003°33'0 0.0
2014-Jul-21 04:31N 51°54' E 003°33'0 0.0
2014-Jul-21 03:28N 51°54' E 003°33'0 0.0
2014-Jul-21 02:28N 51°54' E 003°33'0 0.0
2014-Jul-21 01:31N 51°54' E 003°33'0 0.2
2014-Jul-21 00:22N 51°54' E 003°34'0 0.1
2014-Jul-20 23:19N 51°54' E 003°34'0 0.0
2014-Jul-20 22:31N 51°54' E 003°34'0 0.0
2014-Jul-20 21:31N 51°54' E 003°34'0 0.0
2014-Jul-20 20:08N 51°54' E 003°34'0 0.1
2014-Jul-20 17:28N 51°54' E 003°34'0 0.1
2014-Jul-20 16:28N 51°54' E 003°33'0 0.0
2014-Jul-20 15:28N 51°54' E 003°33'0 0.0
2014-Jul-20 14:25N 51°54' E 003°33'0 0.0
2014-Jul-20 13:31N 51°54' E 003°33'0 0.0
2014-Jul-20 12:28N 51°54' E 003°33'0 0.1
2014-Jul-20 08:25N 51°54' E 003°34'0 0.0
2014-Jul-20 07:28N 51°54' E 003°34'0 0.0
2014-Jul-20 06:28N 51°54' E 003°34'0 0.1
2014-Jul-20 05:25N 51°54' E 003°34'0 0.1
2014-Jul-20 04:22N 51°54' E 003°33'0 0.0
2014-Jul-20 03:31N 51°54' E 003°33'0 0.0
2014-Jul-20 02:31N 51°54' E 003°33'0 0.0
2014-Jul-20 01:31N 51°54' E 003°33'0 0.1
2014-Jul-20 00:19N 51°54' E 003°33'0 0.2
2014-Jul-19 23:28N 51°54' E 003°34'0 0.1
2014-Jul-19 22:26N 51°54' E 003°34'0 0.0
2014-Jul-19 18:31N 51°54' E 003°34'0 0.0
2014-Jul-19 17:25N 51°54' E 003°34'0 0.2
2014-Jul-19 16:25N 51°54' E 003°33'0 0.1
2014-Jul-19 15:31N 51°54' E 003°33'0 0.0
2014-Jul-19 12:22N 51°54' E 003°33'0 0.0
2014-Jul-19 11:31N 51°54' E 003°33'0 0.1
2014-Jul-19 10:07N 51°54' E 003°33'0 0.0
2014-Jul-19 06:04N 51°54' E 003°34'0 0.1
2014-Jul-19 05:22N 51°54' E 003°33'0 0.3
2014-Jul-19 04:31N 51°54' E 003°33'0 0.1
2014-Jul-19 03:31N 51°54' E 003°33'0 0.0
2014-Jul-19 02:31N 51°54' E 003°33'0 0.0
2014-Jul-19 01:31N 51°54' E 003°33'0 0.0
2014-Jul-19 00:31N 51°54' E 003°33'0 0.2
2014-Jul-18 23:25N 51°54' E 003°34'0 0.2
2014-Jul-18 22:13N 51°54' E 003°33'0 0.1
2014-Jul-18 21:31N 51°54' E 003°33'0 0.1
2014-Jul-18 20:28N 51°54' E 003°33'0 0.1
2014-Jul-18 16:13N 51°54' E 003°33'0 0.0
2014-Jul-18 13:28N 51°54' E 003°33'0 0.0
2014-Jul-18 12:10N 51°54' E 003°33'0 0.0
2014-Jul-18 11:31N 51°54' E 003°33'0 0.1
2014-Jul-18 10:31N 51°54' E 003°33'0 0.1
2014-Jul-18 09:28N 51°54' E 003°33'0 0.1
2014-Jul-18 08:31N 51°54' E 003°33'0 0.0
2014-Jul-18 07:31N 51°54' E 003°34'0 0.0
2014-Jul-18 06:31N 51°54' E 003°34'0 0.0
2014-Jul-18 05:31N 51°54' E 003°34'0 0.0
2014-Jul-18 04:31N 51°54' E 003°33'0 0.2
2014-Jul-18 03:31N 51°54' E 003°33'0 0.0
2014-Jul-18 02:31N 51°54' E 003°33'0 0.0
2014-Jul-18 01:31N 51°54' E 003°33'0 0.0
2014-Jul-18 00:31N 51°54' E 003°33'0 0.0
2014-Jul-17 23:31N 51°54' E 003°33'0 0.0
2014-Jul-17 22:32N 51°54' E 003°33'0 0.0
2014-Jul-17 21:31N 51°54' E 003°33'0 0.1
2014-Jul-17 20:31N 51°54' E 003°33'0 0.1
2014-Jul-17 19:25N 51°54' E 003°33'0 0.0
2014-Jul-17 18:31N 51°54' E 003°33'0 0.0
2014-Jul-17 17:31N 51°54' E 003°33'0 0.0
2014-Jul-17 16:31N 51°54' E 003°34'0 0.2
2014-Jul-17 15:31N 51°54' E 003°33'0 0.0
2014-Jul-17 14:31N 51°54' E 003°33'0 0.0
2014-Jul-17 13:31N 51°54' E 003°33'0 0.0
2014-Jul-17 12:32N 51°54' E 003°33'0 0.0
2014-Jul-17 11:32N 51°54' E 003°33'0 0.0
2014-Jul-17 10:31N 51°54' E 003°33'0 0.1
2014-Jul-17 09:28N 51°54' E 003°33'0 0.1
2014-Jul-17 08:31N 51°54' E 003°33'0 0.0
2014-Jul-17 07:31N 51°54' E 003°33'0 0.0
2014-Jul-17 06:28N 51°54' E 003°34'0 0.0
2014-Jul-17 05:16N 51°54' E 003°34'0 0.0
2014-Jul-17 04:31N 51°54' E 003°34'0 0.0
2014-Jul-17 03:32N 51°54' E 003°34'0 0.2
2014-Jul-17 02:31N 51°54' E 003°33'0 0.1
2014-Jul-17 01:31N 51°54' E 003°33'0 0.0
2014-Jul-17 00:31N 51°54' E 003°33'0 0.0
2014-Jul-16 23:31N 51°54' E 003°33'0 0.0
2014-Jul-16 22:25N 51°54' E 003°33'0 0.2
2014-Jul-16 21:13N 51°54' E 003°33'0 0.0
2014-Jul-16 20:25N 51°54' E 003°33'0 0.1
2014-Jul-16 19:31N 51°54' E 003°33'0 0.0
2014-Jul-16 18:31N 51°54' E 003°33'0 0.0
2014-Jul-16 17:25N 51°54' E 003°34'0 0.0
2014-Jul-16 16:28N 51°54' E 003°34'0 0.0
2014-Jul-16 15:28N 51°54' E 003°34'  

Dump ship's entire track history